Location: Newark
(5.8900°S, 42.6378°W)
Time: 02:17:38
(UTC+00:00)

Vanguard 2 - All Passes

Search period start: 24 October 2019 00:00
Search period end: 03 November 2019 00:00
Orbit: 554 x 2937 km, 32.9° (Epoch: 23 October)

Date Brightness Start Highest point End Pass type
(mag) Time Alt. Az. Time Alt. Az. Time Alt. Az.
24 Oct - 02:03:21 10° NNW 02:18:34 43° NE 02:34:25 10° E visible
24 Oct - 04:13:49 10° NW 04:31:57 86° SW 04:47:05 10° SE visible
24 Oct - 06:29:38 10° W 06:44:48 38° SSW 06:55:54 10° SSE visible
24 Oct - 08:52:09 10° SW 08:57:53 14° SSW 09:02:36 10° S daylight
24 Oct - 13:18:56 10° SSW 13:22:23 18° SSE 13:25:19 10° ESE daylight
24 Oct - 15:27:01 10° WSW 15:30:58 48° NW 15:34:56 10° NE daylight
25 Oct - 00:13:51 10° N 00:23:27 20° NE 00:34:29 10° ENE visible
25 Oct - 02:20:50 10° NW 02:36:56 55° NE 02:53:30 10° ESE visible
25 Oct - 04:32:17 10° WNW 04:50:14 71° SW 05:05:05 10° SE visible
25 Oct - 06:49:40 10° W 07:03:21 30° SSW 07:13:34 10° SSE visible
25 Oct - 09:13:08 10° SW 09:16:59 12° SSW 09:20:19 10° S daylight
25 Oct - 13:36:12 10° SW 13:40:43 30° SSE 13:44:19 10° E daylight
25 Oct - 15:45:40 10° W 15:48:55 23° NW 15:52:15 10° NNE daylight
26 Oct - 00:30:34 10° NNW 00:42:04 27° NE 00:55:37 10° E visible
26 Oct - 02:38:32 10° NW 02:55:12 69° NE 03:12:11 10° ESE visible
26 Oct - 04:51:05 10° WNW 05:08:34 57° SW 05:22:58 10° SE visible
26 Oct - 07:10:08 10° WSW 07:22:08 24° SSW 07:31:16 10° SSE visible
26 Oct - 09:33:22 10° SSW 09:36:10 11° S 09:38:40 10° S daylight
26 Oct - 11:45:45 10° SSW 11:48:53 13° SSE 11:51:33 10° SE daylight
26 Oct - 13:53:51 10° SW 13:58:51 56° SSE 14:02:46 10° ENE daylight
26 Oct - 16:05:30 10° NW 16:06:57 12° NNW 16:08:26 10° NNW daylight
27 Oct - 00:47:36 10° NNW 01:00:28 35° NE 01:15:50 10° E visible
27 Oct - 02:56:28 10° NW 03:13:28 84° NE 03:30:35 10° ESE visible
27 Oct - 05:10:16 10° W 05:27:02 46° SSW 05:40:46 10° SE visible
27 Oct - 07:30:52 10° WSW 07:41:08 20° SSW 07:49:08 10° SSE visible
27 Oct - 09:52:13 10° SSW 09:55:21 12° S 09:58:07 10° SSE daylight
27 Oct - 12:02:47 10° SSW 12:07:34 19° SSE 12:11:13 10° ESE daylight
27 Oct - 14:11:52 10° WSW 14:16:49 72° NW 14:20:46 10° NE daylight
27 Oct - 23:00:33 10° N 23:06:06 13° NE 23:12:27 10° ENE visible
28 Oct - 01:04:53 10° NNW 01:18:42 46° NE 01:35:21 10° ESE visible
28 Oct - 03:14:39 10° WNW 03:31:46 80° SW 03:48:45 10° SE visible
28 Oct - 05:29:53 10° W 05:45:40 37° SSW 05:58:33 10° SE visible
28 Oct - 07:51:36 10° SW 08:00:19 17° SSW 08:07:15 10° SSE visible
28 Oct - 10:10:09 10° SSW 10:14:29 13° S 10:18:03 10° SSE daylight
28 Oct - 12:20:12 10° SW 12:26:05 29° SSE 12:30:14 10° E daylight
28 Oct - 14:30:19 10° WSW 14:34:41 34° NW 14:38:20 10° NNE daylight
28 Oct - 23:16:17 10° N 23:24:40 20° NE 23:35:00 10° ENE visible
29 Oct - 01:22:24 10° NW 01:36:52 59° NE 01:54:24 10° ESE visible
29 Oct - 03:33:08 10° WNW 03:50:09 66° SSW 04:06:46 10° SE visible
29 Oct - 05:49:55 10° W 06:04:31 31° SSW 06:16:25 10° SSE visible
29 Oct - 08:11:58 10° SW 08:19:38 16° S 08:25:48 10° SSE daylight
29 Oct - 10:27:48 10° SSW 10:33:29 17° S 10:37:50 10° SE daylight
29 Oct - 12:37:54 10° SW 12:44:24 47° SSE 12:48:47 10° ENE daylight
29 Oct - 14:49:25 10° W 14:52:31 18° NW 14:55:16 10° N daylight
29 Oct - 23:32:54 10° NNW 23:42:58 27° NE 23:56:01 10° E visible
30 Oct - 01:40:07 10° NW 01:55:02 74° NE 02:13:03 10° ESE visible
30 Oct - 03:51:59 10° WNW 04:08:39 53° SSW 04:24:42 10° SE visible
30 Oct - 06:10:18 10° WSW 06:23:35 26° SSW 06:34:25 10° SSE visible
30 Oct - 08:31:38 10° SW 08:38:59 16° S 08:44:50 10° SSE daylight
30 Oct - 10:45:26 10° SSW 10:52:21 22° SSE 10:57:15 10° ESE daylight
30 Oct - 12:55:51 10° SW 13:02:31 82° SSE 13:06:56 10° ENE daylight
30 Oct - 23:49:53 10° NNW 00:01:05 37° NE 00:16:07 10° E visible
31 Oct - 01:58:04 10° NW 02:13:15 89° SW 02:31:25 10° SE visible
31 Oct - 04:11:11 10° W 04:27:21 44° SSW 04:42:36 10° SE visible
31 Oct - 06:30:50 10° WSW 06:42:53 22° SSW 06:52:40 10° SSE visible
31 Oct - 08:50:34 10° SSW 08:58:18 17° S 09:04:14 10° SE daylight
31 Oct - 11:03:06 10° SW 11:11:02 30° SSE 11:16:16 10° E daylight
31 Oct - 13:14:09 10° WSW 13:20:25 55° NW 13:24:43 10° NE daylight
31 Oct - 22:04:04 10° NNE 22:07:59 12° NE 22:12:26 10° ENE visible
01 Nov - 00:07:10 10° NNW 00:19:06 49° NE 00:35:34 10° ESE visible
01 Nov - 02:16:18 10° WNW 02:31:35 74° SW 02:49:36 10° SE visible
01 Nov - 04:30:47 10° W 04:46:15 36° SSW 05:00:35 10° SE visible
01 Nov - 06:51:15 10° SW 07:02:19 20° S 07:11:15 10° SE visible
01 Nov - 09:08:57 10° SSW 09:17:29 20° S 09:23:44 10° SE daylight
01 Nov - 11:20:54 10° SW 11:29:32 44° SSE 11:34:54 10° E daylight
01 Nov - 13:32:53 10° W 13:38:10 30° NW 13:42:04 10° NNE daylight
01 Nov - 22:19:19 10° N 22:26:15 19° NE 22:35:08 10° E visible
02 Nov - 00:24:41 10° NW 00:37:07 64° NE 00:54:32 10° ESE visible
02 Nov - 02:34:50 10° WNW 02:50:05 60° SSW 03:07:39 10° SE visible
02 Nov - 04:50:45 10° WSW 05:05:22 30° SSW 05:18:40 10° SE visible
02 Nov - 07:11:15 10° SW 07:21:50 20° S 07:30:15 10° SE visible
02 Nov - 09:27:02 10° SW 09:36:32 25° SSE 09:43:05 10° ESE daylight
02 Nov - 11:38:52 10° SW 11:47:49 67° SSE 11:53:11 10° ENE daylight
02 Nov - 13:52:25 10° W 13:55:52 16° NW 13:58:45 10° N daylight
02 Nov - 22:35:49 10° NNW 22:44:16 27° NE 22:56:01 10° E visible
